星链-2085 (STARLINK-2085 )

导读

STARLINK-2085是美国SpaceX公司星链(Starlink)低轨互联网星座的第16批次卫星,于2021年1月20日发射入轨,编号NORAD ID 47369,属于星链全球互联网星座组网卫星,运行于低地球轨道,承担全球高速低延迟互联网接入服务。该卫星已完成服务周期,预计于2024年7月26日再入大气层焚毁,是星链大规模低轨星座部署中的一员。

Basic Information
目录编号:
47369
目录名称:
STARLINK-2085
国际标识:
2021-005W
轨道中心:
EARTH
卫星名称:
星链-2085
卫星全名:
星链-2085 (STARLINK-2085 )
卫星状态:
已陨落 最后检测时间 2024-07-26
发射日期:
2021-01-20 UTC
国别 :
美国 (US)
星等 :
--
Orbit Information
数据来源 国际轨道数据
星历时间: 2024-07-26T19:48:54+0800
轨道信息已过期688天
半长轴: 6539.335km
偏心率: 0.0011771
轨道倾角: 53.050°
近地点辐角 226.050°
升交点赤经 110.417°
平近点角 290.486°
近地点: 153.502km
远地点: 168.898km
周期: 87.712分钟
每日圈数: 16.417328
Detailed Information
固有亮度:
5
最大亮度:
2.5
卫星平台:
Starlink V1.0
覆盖范围:
全球
运营商:
太空探索技术公司
运营商所在国:
美国
制造商(研发单位):
太空探索技术公司
制造商所在国:
美国
使用方式:
暂无
Satellite Introduction
星链(Starlink)计划是由太空探索技术公司(SpaceX)提出的一个巨型低轨卫星互联网星座项目,计划在2019年至2024年间在太空搭建由约1.2万颗卫星组成的“星链”网络,其中1584颗将部署在地球上空550千米处的近地轨道,并从2020年开始工作。该卫星仍在工作。